Regional Weather Roundup
Issued by NWS Huntsville, AL

Home | Current Version | Previous Version | Text Only | Print | Product List | Glossary On
Versions: 1 2 3 4 5 6 7 8 9 10 11 12 13 14 15 16 17 18 19 20 21 22 23 24 25 26 27 28 29 30 31 32 33 34 35 36 37 38 39 40 41 42 43 44 45 46 47 48 49 50
000
ASUS44 KHUN 070610
RWRHUN

WEATHER ROUNDUP FOR THE TENNESSEE VALLEY
NATIONAL WEATHER SERVICE HUNTSVILLE AL
100 AM CDT THU MAY 07 2015

ALZ001>004-070700-
NORTHWEST ALABAMA

CITY           SKY/WX    TMP DP  RH WIND       PRES   REMARKS
BANKHEAD NF      N/A     58  53  83 CALM        N/A
SHOALS AIRPORT CLEAR     58  54  86 E3        30.10F
6HR MIN TEMP:  57; 6HR MAX TEMP:  77;

$$

ALZ005>007-016-070700-
NORTH CENTRAL ALABAMA

CITY           SKY/WX    TMP DP  RH WIND       PRES   REMARKS
DECATUR AP     CLEAR     57  54  89 CALM      30.11S
6HR MIN TEMP:  57; 6HR MAX TEMP:  75;

HUNTSVILLE AP  CLEAR     63  55  75 CALM      30.10F
6HR MIN TEMP:  63; 6HR MAX TEMP:  80;

HUN NWS/UAH      N/A     63  54  72 CALM        N/A
MERIDIANVILLE  CLEAR     55  52  88 CALM      30.12S
REDSTONE ARSN  CLEAR     60  54  82 SE1       30.10F
VINEMONT AP    FAIR      55  54  97 CALM      30.13F
$$

ALZ008>010-070700-
NORTHEAST ALABAMA

CITY           SKY/WX    TMP DP  RH WIND       PRES   REMARKS
ALBERTVILLE    CLEAR     59  59 100 CALM      30.11F
FORT PAYNE     CLEAR     54  50  87 CALM      30.12F FOG
SCOTTSBORO HCN   N/A     55 N/A N/A MISG        N/A
VALLEY HEAD      N/A     54 N/A N/A MISG        N/A
$$

TNZ076-096-097-070700-
SOUTHEASTERN MIDDLE TENNESSEE

CITY           SKY/WX    TMP DP  RH WIND       PRES   REMARKS
TULLAHOMA      CLEAR     54  50  87 CALM      30.14S
WINCHESTER     CLEAR     57  54  88 CALM      30.13S
$$

...SURROUNDING SITES...

CITY           SKY/WX    TMP DP  RH WIND       PRES   REMARKS
ATLANTA        PTCLDY    69  53  56 E3        30.12F
ANNISTON       CLEAR     59  56  89 E3        30.11F
BIRMINGHAM     CLEAR     61  56  83 CALM      30.12S
CHATTANOOGA    CLEAR     63  57  81 CALM      30.12F
DALTON         CLEAR     55  55 100 CALM      30.12F
GADSDEN        CLEAR    N/A N/A N/A CALM      30.10S
GOLDEN TRNGL   CLEAR     68  57  68 SE9       30.06F
HALEYVILLE       N/A     55  55 100 MISG      30.13F
JACKSON TN     CLEAR     59  53  80 CALM      30.07S
MEMPHIS        PTCLDY    71  53  52 SE7       30.04F
NASHVILLE      CLEAR     65  58  78 CALM      30.11S
OXFORD MS      FAIR      64  55  72 SE5       30.07F
ROME           CLEAR     58  55  90 CALM      30.11F
SAVANNAH       CLEAR     55  32  41 CALM      30.09S
TUPELO         CLEAR     65  58  78 CALM      30.07F
TUSCALOOSA     CLEAR     62  58  86 CALM      30.08F
$$

...GULF COAST WEATHER...

CITY           SKY/WX    TMP DP  RH WIND       PRES   REMARKS
GULFPORT       CLEAR     69  66  90 CALM      30.04F
PASCAGOULA     CLEAR     61  60  97 CALM      30.06S
MOBILE         CLEAR     62  61  96 CALM      30.07S
GULF SHORES    CLEAR     62  62 100 CALM      30.06S FOG
PENSACOLA      CLEAR     63  63 100 CALM      30.06R
DESTIN         CLEAR     69  68  96 CALM      30.06F FOG
PANAMA CITY    CLEAR     68  66  94 NE3       30.06F
APPALACHICOLA  PTCLDY    71  67  87 E7        30.06F
$$




USA.gov is the U.S. government's official web portal to all federal, state and local government web resources and services.